White Plains, CT

5:04 PM EST on November 13, 2019 (GMT -0500)
Westchester County

Weather History for KHPN - September, 2019

Change the Weather History Date:

Sunday, September 1, 2019

  Actual Average Record
Temperature  
Mean Temperature 66 °F -  
Max Temperature 75 °F 75 °F 91 °F (2010)
Min Temperature 57 °F 59 °F 50 °F (2017)
Cooling Degree Days 1    
Growing Degree Days 16 (Base 50)    
Moisture  
Dew Point 54 °F    
Average Humidity 66    
Maximum Humidity 81    
Minimum Humidity 51    
Precipitation  
Precipitation 0.00 in - - ()
Sea Level Pressure  
Sea Level Pressure 30.30 in    
Wind  
Wind Speed 6 mph ()    
Max Wind Speed 14 mph    
Max Gust Speed -    
Visibility 10.0 miles    
Events      
Averages and records for this station are not official NWS values.
T = Trace of Precipitation, MM = Missing Value Source: Averaged Metar Reports

Daily Weather History Graph

Daily Weather History Graph

Search for Another Location

Airport or City:

Astronomy

Sep. 01, 2019 Rise Set
Actual Time 6:21 AM EDT 7:27 PM EDT
Civil Twilight 5:52 AM EDT 7:56 PM EDT
Nautical Twilight 5:19 AM EDT 8:29 PM EDT
Astronomical Twilight 4:43 AM EDT 9:04 PM EDT
Moon 8:49 AM EDT (9/1) 9:12 PM EDT (9/1)
Length of Visible Light 14h 03m
Length of Day
13h 06m
Waxing Crescent, 8% of the Moon is Illuminated
Sep 1
Waxing Crescent
Sep 5
First Quarter
Sep 14
Full
Sep 21
Last Quarter
Sep 28
New

Hourly Weather History & Observations

Time (EDT) Temp. Dew Point Humidity Pressure Visibility Wind Dir Wind Speed Gust Speed Precip Events Conditions
12:56 AM 60.1 °F 51.1 °F 72% 30.30 in 10.0 mi NNW 5.8 mph - N/A   Clear
1:56 AM 62.1 °F 48.9 °F 62% 30.30 in 10.0 mi North 6.9 mph - N/A   Clear
2:56 AM 60.1 °F 50.0 °F 69% 30.31 in 10.0 mi NNW 5.8 mph - N/A   Clear
3:56 AM 61.0 °F 48.9 °F 64% 30.30 in 10.0 mi North 5.8 mph - N/A   Clear
4:56 AM 57.9 °F 51.1 °F 78% 30.31 in 10.0 mi Calm Calm - N/A   Partly Cloudy
5:56 AM 60.1 °F 50.0 °F 69% 30.32 in 10.0 mi NNE 5.8 mph - N/A   Clear
6:56 AM 61.0 °F 50.0 °F 67% 30.33 in 10.0 mi NE 5.8 mph - N/A   Clear
7:56 AM 64.0 °F 51.1 °F 63% 30.34 in 10.0 mi ENE 9.2 mph - N/A   Clear
8:56 AM 66.0 °F 52.0 °F 60% 30.34 in 10.0 mi East 8.1 mph - N/A   Partly Cloudy
9:56 AM 68.0 °F 53.1 °F 59% 30.35 in 10.0 mi East 11.5 mph - N/A   Clear
10:56 AM 71.1 °F 53.1 °F 53% 30.35 in 10.0 mi East 8.1 mph - N/A   Partly Cloudy
11:56 AM 72.0 °F 54.0 °F 53% 30.35 in 10.0 mi ESE 9.2 mph - N/A   Partly Cloudy
12:56 PM 73.0 °F 57.0 °F 57% 30.34 in 10.0 mi ESE 10.4 mph - N/A   Partly Cloudy
1:56 PM 73.9 °F 57.9 °F 57% 30.32 in 10.0 mi South 8.1 mph - N/A   Partly Cloudy
2:56 PM 75.0 °F 55.9 °F 51% 30.29 in 10.0 mi South 10.4 mph - N/A   Scattered Clouds
3:56 PM 73.0 °F 57.0 °F 57% 30.29 in 10.0 mi SE 10.4 mph - N/A   Scattered Clouds
4:56 PM 72.0 °F 57.9 °F 61% 30.28 in 10.0 mi ESE 8.1 mph - N/A   Scattered Clouds
5:56 PM 70.0 °F 57.0 °F 63% 30.28 in 10.0 mi SE 13.8 mph - N/A   Scattered Clouds
6:56 PM 69.1 °F 55.9 °F 63% 30.28 in 10.0 mi SSE 8.1 mph - N/A   Clear
7:56 PM 66.0 °F 57.0 °F 73% 30.27 in 10.0 mi SE 5.8 mph - N/A   Partly Cloudy
8:56 PM 64.9 °F 57.9 °F 78% 30.27 in 10.0 mi SE 6.9 mph - N/A   Partly Cloudy
9:56 PM 66.0 °F 60.1 °F 81% 30.26 in 10.0 mi SE 8.1 mph - N/A   Mostly Cloudy
10:56 PM 64.9 °F 59.0 °F 81% 30.25 in 10.0 mi SSE 4.6 mph - N/A   Mostly Cloudy
11:56 PM 64.9 °F 59.0 °F 81% 30.23 in 10.0 mi ESE 5.8 mph - N/A   Scattered Clouds